KF5JED-13 Weather Reports


Display with metric or nautical units.
time (UTC)temp
F
wind
direction
speed
MPH
gust
MPH
rain 1hr
in
rain 24hr
in
rain mn
in
humidity
%
barometer
mb
20260903033400 78 140 6.0 10.0 0.00 0.02 0.02 57 1015.8
20260903032854 79 148 9.0 10.0 0.00 0.02 0.02 55 1015.7
20260903032350 79 156 7.0 10.0 0.00 0.02 0.02 54 1016.0
20260903031845 79 142 6.0 9.0 0.00 0.02 0.02 55 1015.8
20260903031344 79 145 6.0 10.0 0.00 0.02 0.02 55 1015.7
20260903030840 79 140 5.0 10.0 0.00 0.02 0.02 55 1015.9
20260903030335 79 141 6.0 10.0 0.00 0.02 0.02 54 1015.8
20260903025826 79 145 4.0 9.0 0.00 0.02 0.02 54 1015.5
20260903025321 78 137 6.0 8.0 0.00 0.02 0.02 54 1015.3
20260903024821 79 141 7.0 10.0 0.00 0.02 0.02 54 1015.5
20260903024320 79 134 6.0 10.0 0.00 0.02 0.02 53 1015.5
20260903023816 79 139 9.0 9.0 0.00 0.02 0.02 53 1015.3
20260903023312 78 141 7.0 8.0 0.00 0.02 0.02 55 1015.3
20260903022806 78 132 4.0 9.0 0.00 0.02 0.02 55 1015.2
20260903022306 78 135 3.0 5.0 0.00 0.02 0.02 56 1015.6
20260903021759 78 105 3.0 6.0 0.00 0.02 0.02 55 1015.6
20260903021254 79 142 5.0 6.0 0.00 0.02 0.02 53 1015.5
20260903020749 80 138 5.0 8.0 0.00 0.02 0.02 51 1015.6
20260903020243 80 129 6.0 7.0 0.00 0.02 0.02 51 1015.5
20260903015739 80 126 5.0 8.0 0.00 0.02 0.02 51 1015.2
20260903015234 80 137 3.0 6.0 0.00 0.02 0.02 52 1015.5
20260903014729 80 142 4.0 6.0 0.00 0.02 0.02 51 1015.5
20260903014229 80 133 4.0 8.0 0.00 0.02 0.02 52 1015.5
20260903013724 80 132 5.0 6.0 0.00 0.02 0.02 53 1015.3
20260903013223 80 138 4.0 6.0 0.00 0.02 0.02 53 1015.3
20260903012721 81 148 6.0 6.0 0.00 0.02 0.02 52 1015.2
20260903012215 81 97 2.0 5.0 0.00 0.02 0.02 50 1015.5
20260903011710 82 126 3.0 5.0 0.00 0.02 0.02 50 1015.7
20260903011204 82 109 2.0 6.0 0.00 0.02 0.02 49 1015.3
20260903010659 82 110 2.0 6.0 0.00 0.02 0.02 49 1015.3
20260903010159 82 123 3.0 8.0 0.00 0.02 0.02 49 1015.2
20260903005653 82 122 4.0 6.0 0.00 0.02 0.02 49 1015.5
20260903005148 82 108 3.0 5.0 0.00 0.02 0.02 49 1015.3
20260903004644 82 141 5.0 10.0 0.00 0.02 0.02 48 1015.5
20260903004138 83 136 3.0 11.0 0.00 0.02 0.02 47 1015.2
20260903003633 83 128 8.0 10.0 0.00 0.02 0.02 47 1015.6
20260903003123 83 115 3.0 7.0 0.00 0.02 0.02 48 1015.6
20260903002618 84 133 4.0 10.0 0.00 0.02 0.02 47 1015.5
20260903002112 84 134 9.0 12.0 0.00 0.02 0.02 47 1015.8
20260903001607 84 134 9.0 11.0 0.00 0.02 0.02 47 1015.5
20260903001101 84 141 8.0 13.0 0.00 0.02 0.02 48 1015.6
20260903000557 84 138 8.0 15.0 0.00 0.02 0.02 47 1015.7
20260903000056 84 145 13.0 18.0 0.00 0.02 0.02 47 1015.7
20260902235555 84 141 8.0 15.0 0.00 0.02 0.02 50 1015.7
20260902235050 85 152 7.0 15.0 0.00 0.02 0.02 48 1015.8
20260902234545 86 156 7.0 16.0 0.00 0.02 0.02 46 1015.9
20260902234043 87 138 10.0 18.0 0.00 0.02 0.02 45 1015.8
20260902233538 88 150 9.0 20.0 0.00 0.02 0.02 43 1015.7
20260902233033 87 145 10.0 15.0 0.00 0.02 0.02 46 1015.9
20260902232532 86 152 8.0 14.0 0.00 0.02 0.02 46 1015.9
20260902232026 87 155 8.0 10.0 0.00 0.02 0.02 48 1015.9
20260902231521 86 138 10.0 15.0 0.00 0.02 0.02 48 1015.9
20260902231020 86 159 10.0 14.0 0.00 0.02 0.02 47 1015.8
20260902230515 86 145 9.0 17.0 0.00 0.02 0.02 47 1015.8
20260902230014 87 164 12.0 16.0 0.00 0.02 0.02 46 1015.9
20260902225510 87 162 11.0 13.0 0.00 0.02 0.02 47 1015.9
20260902225004 87 157 7.0 13.0 0.00 0.02 0.02 46 1015.7
20260902224502 87 159 4.0 13.0 0.00 0.02 0.02 46 1015.8
20260902223954 88 157 10.0 13.0 0.00 0.02 0.02 44 1015.8
20260902223449 87 155 12.0 13.0 0.00 0.02 0.02 47 1015.9
20260902222948 88 141 7.0 14.0 0.00 0.02 0.02 47 1016.1
20260902222446 89 178 13.0 14.0 0.00 0.02 0.02 44 1016.0
20260902221941 88 162 7.0 11.0 0.00 0.02 0.02 47 1015.9
20260902221439 88 153 7.0 11.0 0.00 0.02 0.02 47 1016.0
20260902220935 88 139 7.0 11.0 0.00 0.02 0.02 48 1015.8
20260902220430 87 160 6.0 13.0 0.00 0.02 0.02 49 1016.1
20260902215925 86 150 9.0 16.0 0.02 0.02 0.02 48 1016.1
20260902215420 87 146 5.0 6.0 0.02 0.02 0.02 45 1016.2
20260902214916 86 134 9.0 12.0 0.00 0.01 0.01 43 1016.2
20260902214414 85 131 6.0 8.0 0.00 0.01 0.01 44 1016.0
20260902213909 83 163 11.0 15.0 0.00 0.01 0.01 49 1016.0
20260902213406 78 158 15.0 23.0 0.02 0.01 0.01 56 1016.1
20260902212904 75 175 14.0 23.0 0.07 0.01 0.01 67 1016.1
20260902212400 78 199 15.0 25.0 0.05 0.01 0.01 65 1016.7
20260902211856 82 215 26.0 29.0 0.00 0.00 0.00 48 1016.2
20260902211352 81 211 23.0 28.0 0.00 0.00 0.00 50 1016.1
20260902210841 84 208 17.0 25.0 0.00 0.00 0.00 61 1016.0
20260902210341 84 228 15.0 21.0 0.00 0.00 0.00 47 1016.0
20260902205839 87 226 11.0 23.0 0.00 0.00 0.00 42 1016.1
20260902205334 89 218 12.0 25.0 0.00 0.00 0.00 40 1016.0
20260902204830 92 207 11.0 19.0 0.00 0.00 0.00 35 1015.9
20260902204324 93 192 5.0 10.0 0.00 0.00 0.00 34 1016.1
20260902203820 93 180 11.0 14.0 0.00 0.00 0.00 34 1016.0
20260902203315 94 177 15.0 17.0 0.00 0.00 0.00 33 1016.1
20260902202814 95 199 14.0 17.0 0.00 0.00 0.00 33 1016.0
20260902202311 95 205 9.0 17.0 0.00 0.00 0.00 32 1016.3
20260902201807 94 209 15.0 19.0 0.00 0.00 0.00 33 1016.2
20260902201306 96 217 14.0 16.0 0.00 0.00 0.00 32 1016.5
20260902200802 94 205 8.0 13.0 0.00 0.00 0.00 33 1016.7
20260902200257 95 217 18.0 23.0 0.00 0.00 0.00 33 1016.5
20260902195752 96 162 11.0 17.0 0.00 0.00 0.00 32 1016.8
20260902195251 94 209 11.0 18.0 0.00 0.00 0.00 34 1017.1
20260902194746 93 204 8.0 14.0 0.00 0.00 0.00 34 1017.1
20260902194241 93 197 11.0 18.0 0.00 0.00 0.00 34 1017.0
20260902193737 94 219 19.0 21.0 0.00 0.00 0.00 34 1017.2
20260902193232 94 210 11.0 14.0 0.00 0.00 0.00 34 1017.1
20260902192731 93 227 6.0 15.0 0.00 0.00 0.00 34 1017.3
20260902192230 95 209 8.0 14.0 0.00 0.00 0.00 33 1017.2
20260902191725 96 210 14.0 19.0 0.00 0.00 0.00 32 1017.3
20260902191219 94 215 16.0 26.0 0.00 0.00 0.00 34 1017.5
20260902190714 93 245 4.0 17.0 0.00 0.00 0.00 36 1017.6
20260902190209 95 188 12.0 16.0 0.00 0.00 0.00 34 1017.8
20260902185705 94 206 13.0 18.0 0.00 0.00 0.00 33 1017.9
20260902185202 94 206 10.0 17.0 0.00 0.00 0.00 35 1017.7
20260902184656 94 209 13.0 18.0 0.00 0.00 0.00 35 1017.8
20260902184151 94 174 9.0 18.0 0.00 0.00 0.00 35 1018.1
20260902183647 95 187 15.0 20.0 0.00 0.00 0.00 35 1018.1
20260902183143 93 200 12.0 13.0 0.00 0.00 0.00 35 1018.4
20260902182639 93 237 8.0 19.0 0.00 0.00 0.00 36 1018.6
20260902182135 92 211 11.0 18.0 0.00 0.00 0.00 36 1018.7
20260902181631 93 202 9.0 20.0 0.00 0.00 0.00 36 1018.5
20260902181131 94 172 10.0 19.0 0.00 0.00 0.00 36 1018.7
20260902180630 92 211 10.0 13.0 0.00 0.00 0.00 37 1018.8
20260902180126 91 191 13.0 17.0 0.00 0.00 0.00 38 1019.0
20260902175626 91 203 10.0 16.0 0.00 0.00 0.00 37 1018.9
20260902175122 91 203 12.0 25.0 0.00 0.00 0.00 37 1018.9
20260902174618 91 198 14.0 16.0 0.00 0.00 0.00 38 1018.9
20260902174114 93 185 17.0 21.0 0.00 0.00 0.00 36 1018.9
20260902173608 94 208 14.0 20.0 0.00 0.00 0.00 36 1018.9
20260902173103 93 181 14.0 20.0 0.00 0.00 0.00 36 1019.1
20260902172557 92 202 21.0 22.0 0.00 0.00 0.00 37 1019.1
20260902172051 92 211 15.0 16.0 0.00 0.00 0.00 38 1019.2
20260902171547 92 193 11.0 20.0 0.00 0.00 0.00 38 1019.2
20260902171043 92 212 13.0 17.0 0.00 0.00 0.00 37 1019.4
20260902170537 91 214 15.0 20.0 0.00 0.00 0.00 39 1019.4
20260902170033 89 202 12.0 17.0 0.00 0.00 0.00 40 1019.4
20260902165527 90 218 11.0 20.0 0.00 0.00 0.00 40 1019.5
20260902165021 89 206 15.0 20.0 0.00 0.00 0.00 40 1019.5
20260902164516 90 194 10.0 16.0 0.00 0.00 0.00 39 1019.5
20260902164015 90 211 10.0 17.0 0.00 0.00 0.00 40 1019.6
20260902163511 89 214 12.0 18.0 0.00 0.00 0.00 42 1019.6
20260902163009 89 209 13.0 17.0 0.00 0.00 0.00 42 1019.6
20260902162504 87 208 9.0 17.0 0.00 0.00 0.00 43 1019.7
20260902161959 87 211 14.0 18.0 0.00 0.00 0.00 43 1019.5
20260902161454 86 210 12.0 17.0 0.00 0.00 0.00 44 1019.6
20260902160950 87 231 9.0 18.0 0.00 0.00 0.00 44 1019.5
20260902160445 86 217 12.0 20.0 0.00 0.00 0.00 45 1019.4
20260902155943 87 209 15.0 19.0 0.00 0.00 0.00 43 1019.5
20260902155439 86 214 13.0 17.0 0.00 0.00 0.00 44 1019.6
20260902154932 85 219 13.0 20.0 0.00 0.00 0.00 45 1019.6
20260902154428 86 200 13.0 17.0 0.00 0.00 0.00 45 1019.5
20260902153928 84 212 15.0 23.0 0.00 0.00 0.00 45 1019.4
20260902153426 85 208 12.0 23.0 0.00 0.00 0.00 45 1019.4
20260902152922 83 215 11.0 17.0 0.00 0.00 0.00 45 1019.5
20260902152418 84 203 11.0 15.0 0.00 0.00 0.00 44 1019.4
20260902151913 83 197 10.0 14.0 0.00 0.00 0.00 45 1019.1
20260902151409 82 200 11.0 15.0 0.00 0.00 0.00 46 1019.2
20260902150903 82 211 10.0 16.0 0.00 0.00 0.00 47 1019.6
20260902150359 82 213 8.0 15.0 0.00 0.00 0.00 46 1019.1
20260902145858 80 216 6.0 18.0 0.00 0.00 0.00 48 1019.1
20260902145354 79 207 10.0 14.0 0.00 0.00 0.00 49 1019.2
20260902144848 78 175 10.0 13.0 0.00 0.00 0.00 50 1019.5
20260902144345 78 180 6.0 11.0 0.00 0.00 0.00 51 1019.4
20260902143839 77 197 12.0 15.0 0.00 0.00 0.00 51 1019.5
20260902143334 77 196 8.0 13.0 0.00 0.00 0.00 52 1019.4
20260902142830 76 194 11.0 13.0 0.00 0.00 0.00 52 1019.5
20260902142326 76 211 11.0 15.0 0.00 0.00 0.00 52 1019.2
20260902141820 76 201 11.0 13.0 0.00 0.00 0.00 52 1019.2
20260902141316 75 209 11.0 16.0 0.00 0.00 0.00 53 1019.5
20260902140816 76 201 11.0 13.0 0.00 0.00 0.00 52 1019.1
20260902140311 76 192 11.0 13.0 0.00 0.00 0.00 52 1019.4
20260902135810 75 188 10.0 13.0 0.00 0.00 0.00 54 1019.2
20260902135307 74 201 11.0 13.0 0.00 0.00 0.00 54 1019.1
20260902134805 74 196 7.0 11.0 0.00 0.00 0.00 55 1019.2
20260902134301 74 186 7.0 13.0 0.00 0.00 0.00 55 1019.0
20260902133756 75 195 8.0 14.0 0.00 0.00 0.00 54 1018.8
20260902133255 75 193 5.0 13.0 0.00 0.00 0.00 55 1019.0
20260902132750 74 197 10.0 13.0 0.00 0.00 0.00 55 1018.9
20260902132246 74 204 8.0 12.0 0.00 0.00 0.00 55 1018.9
20260902131742 73 204 7.0 13.0 0.00 0.00 0.00 56 1018.8
20260902131238 73 201 9.0 11.0 0.00 0.00 0.00 57 1018.8
20260902130737 72 201 6.0 12.0 0.00 0.00 0.00 57 1018.8
20260902130233 72 210 8.0 11.0 0.00 0.00 0.00 58 1018.5
20260902125728 71 193 7.0 10.0 0.00 0.00 0.00 59 1018.6
20260902125224 71 180 8.0 11.0 0.00 0.00 0.00 59 1018.5
20260902124721 71 193 7.0 11.0 0.00 0.00 0.00 60 1018.4
20260902124216 71 200 6.0 12.0 0.00 0.00 0.00 60 1018.4
20260902123711 70 196 8.0 13.0 0.00 0.00 0.00 60 1018.4
20260902123206 70 198 7.0 12.0 0.00 0.00 0.00 60 1018.4
20260902122700 70 208 7.0 12.0 0.00 0.00 0.00 60 1018.1
20260902122156 69 188 6.0 10.0 0.00 0.00 0.00 61 1018.0
20260902121650 69 196 8.0 11.0 0.00 0.00 0.00 61 1017.9
20260902121145 69 187 8.0 9.0 0.00 0.00 0.00 61 1018.0
20260902120641 70 195 6.0 9.0 0.00 0.00 0.00 61 1017.9
20260902120138 70 191 7.0 10.0 0.00 0.00 0.00 61 1017.9
20260902115637 70 196 7.0 11.0 0.00 0.00 0.00 61 1018.0
20260902115134 69 186 7.0 9.0 0.00 0.00 0.00 61 1017.8
20260902114630 69 184 7.0 9.0 0.00 0.00 0.00 61 1017.7
20260902114129 69 180 7.0 9.0 0.00 0.00 0.00 61 1017.6
20260902113625 69 180 5.0 7.0 0.00 0.00 0.00 61 1017.7
20260902113120 70 178 6.0 8.0 0.00 0.00 0.00 61 1017.6
20260902112615 70 180 7.0 9.0 0.00 0.00 0.00 60 1017.7
20260902112112 70 172 6.0 9.0 0.00 0.00 0.00 60 1017.8
20260902111607 70 179 6.0 10.0 0.00 0.00 0.00 60 1017.8
20260902111103 70 184 7.0 10.0 0.00 0.00 0.00 60 1017.8
20260902110559 69 163 7.0 9.0 0.00 0.00 0.00 61 1018.0
20260902110054 69 153 5.0 10.0 0.00 0.00 0.00 61 1017.9
20260902105549 69 174 5.0 6.0 0.00 0.00 0.00 62 1017.8
20260902105048 69 175 4.0 6.0 0.00 0.00 0.00 61 1018.0
20260902104544 71 203 4.0 7.0 0.00 0.00 0.00 59 1018.0
20260902104039 71 200 7.0 8.0 0.00 0.00 0.00 58 1017.9
20260902103535 70 181 4.0 6.0 0.00 0.00 0.00 59 1017.6
20260902103030 70 199 5.0 7.0 0.00 0.00 0.00 59 1018.0
20260902102526 71 200 8.0 9.0 0.00 0.00 0.00 58 1018.0
20260902102023 71 212 8.0 11.0 0.00 0.00 0.00 57 1017.9
20260902101518 71 191 8.0 11.0 0.00 0.00 0.00 57 1017.9
20260902101016 71 185 8.0 10.0 0.00 0.00 0.00 57 1017.9
20260902100511 71 180 9.0 9.0 0.00 0.00 0.00 57 1017.8
20260902100006 71 166 7.0 10.0 0.00 0.00 0.00 57 1018.1
20260902095500 72 185 9.0 10.0 0.00 0.00 0.00 56 1017.9
20260902094959 72 202 7.0 12.0 0.00 0.00 0.00 56 1018.0
20260902094455 72 200 9.0 13.0 0.00 0.00 0.00 56 1018.0
20260902093950 72 194 9.0 13.0 0.00 0.00 0.00 56 1018.0
20260902093445 72 197 10.0 14.0 0.00 0.00 0.00 55 1017.8
20260902092944 72 201 8.0 11.0 0.00 0.00 0.00 55 1017.9
20260902092440 72 193 7.0 12.0 0.00 0.00 0.00 55 1018.0
20260902091940 72 192 8.0 11.0 0.00 0.00 0.00 55 1018.1
20260902091435 72 183 5.0 11.0 0.00 0.00 0.00 55 1017.9
20260902090931 73 201 5.0 12.0 0.00 0.00 0.00 55 1017.9
20260902090431 73 191 7.0 12.0 0.00 0.00 0.00 54 1018.1
20260902085930 73 189 8.0 10.0 0.00 0.00 0.00 55 1018.0
20260902085426 73 180 6.0 11.0 0.00 0.00 0.00 54 1018.4
20260902084921 73 172 7.0 11.0 0.00 0.00 0.00 54 1018.0
20260902084417 73 183 6.0 10.0 0.00 0.00 0.00 54 1018.1
20260902083913 73 186 9.0 10.0 0.00 0.00 0.00 54 1018.2
20260902083412 73 183 6.0 10.0 0.00 0.00 0.00 54 1018.2
20260902082908 73 185 8.0 10.0 0.00 0.00 0.00 53 1018.4
20260902082403 74 176 7.0 12.0 0.00 0.00 0.00 52 1018.4
20260902081900 74 188 7.0 13.0 0.00 0.00 0.00 52 1018.2
20260902081355 74 180 7.0 10.0 0.00 0.00 0.00 52 1018.4
20260902080851 74 184 7.0 10.0 0.00 0.00 0.00 52 1018.4
20260902080347 74 167 10.0 11.0 0.00 0.00 0.00 51 1018.4
20260902075846 74 185 9.0 11.0 0.00 0.00 0.00 51 1018.2
20260902075342 74 169 7.0 12.0 0.00 0.00 0.00 51 1018.2
20260902074838 74 163 5.0 9.0 0.00 0.00 0.00 51 1018.6
20260902074333 74 165 8.0 10.0 0.00 0.00 0.00 51 1018.4
20260902073828 74 161 5.0 9.0 0.00 0.00 0.00 52 1018.4
20260902073324 74 168 6.0 10.0 0.00 0.00 0.00 51 1018.5
20260902072820 74 168 8.0 9.0 0.00 0.00 0.00 51 1018.5
20260902072315 75 162 7.0 11.0 0.00 0.00 0.00 50 1018.4
20260902071812 75 166 8.0 11.0 0.00 0.00 0.00 50 1018.7
20260902071306 75 168 7.0 10.0 0.00 0.00 0.00 50 1018.6
20260902070803 76 166 7.0 12.0 0.00 0.00 0.00 49 1018.2
20260902070302 76 168 6.0 12.0 0.00 0.00 0.00 49 1018.2
20260902065801 76 173 8.0 13.0 0.00 0.00 0.00 49 1018.0
20260902065256 76 165 6.0 11.0 0.00 0.00 0.00 49 1018.2
20260902064752 76 161 9.0 12.0 0.00 0.00 0.00 49 1018.1
20260902064248 75 158 8.0 12.0 0.00 0.00 0.00 50 1018.5
20260902063743 76 162 7.0 12.0 0.00 0.00 0.00 49 1018.2
20260902063238 75 156 8.0 13.0 0.00 0.00 0.00 50 1018.1
20260902062737 75 155 11.0 14.0 0.00 0.00 0.00 49 1018.0
20260902062232 76 155 10.0 12.0 0.00 0.00 0.00 49 1018.4
20260902061731 76 155 9.0 13.0 0.00 0.00 0.00 49 1018.4
20260902061227 76 159 12.0 14.0 0.00 0.00 0.00 48 1018.2
20260902060724 77 158 9.0 15.0 0.00 0.00 0.00 48 1018.4
20260902060219 77 154 10.0 15.0 0.00 0.00 0.00 48 1018.1
20260902055715 77 157 10.0 15.0 0.00 0.00 0.00 48 1018.1
20260902055211 77 161 10.0 15.0 0.00 0.00 0.00 48 1018.2
20260902054706 77 157 13.0 14.0 0.00 0.00 0.00 48 1018.4
20260902054202 77 158 9.0 15.0 0.00 0.00 0.00 48 1018.2
20260902053657 77 156 11.0 15.0 0.00 0.00 0.00 48 1018.4
20260902053156 77 159 10.0 13.0 0.00 0.00 0.00 48 1018.4
20260902052656 77 156 9.0 13.0 0.00 0.00 0.00 48 1018.6
20260902052151 77 162 12.0 12.0 0.00 0.00 0.00 48 1018.2
20260902051650 78 156 8.0 15.0 0.00 0.00 0.00 47 1018.2
20260902051145 78 164 9.0 14.0 0.00 0.00 0.00 47 1018.1
20260902050639 78 161 8.0 13.0 0.00 0.00 0.00 47 1018.5
20260902050135 78 153 11.0 13.0 0.00 0.00 0.00 47 1018.2
20260902045629 78 155 9.0 13.0 0.00 0.00 0.00 47 1018.5
20260902045126 78 157 10.0 13.0 0.00 0.00 0.00 46 1018.6
20260902044625 79 146 8.0 14.0 0.00 0.00 0.00 46 1018.4
20260902044122 79 154 8.0 14.0 0.00 0.00 0.00 45 1018.4
20260902043617 79 156 12.0 14.0 0.00 0.00 0.00 45 1018.2
20260902043112 79 154 11.0 13.0 0.00 0.00 0.00 45 1018.1
20260902042611 79 155 10.0 15.0 0.00 0.00 0.00 45 1018.2
20260902042107 80 146 9.0 15.0 0.00 0.00 0.00 45 1018.5
20260902041606 80 143 11.0 15.0 0.00 0.00 0.00 44 1018.4
20260902041101 80 150 7.0 15.0 0.00 0.00 0.00 45 1018.4
20260902040555 80 147 10.0 16.0 0.00 0.00 0.00 44 1018.2
20260902040050 80 154 8.0 13.0 0.00 0.00 0.00 44 1018.5
20260902035543 81 152 8.0 12.0 0.00 0.00 0.00 43 1018.2
20260902035039 81 158 9.0 14.0 0.00 0.00 0.00 43 1018.2
20260902034538 81 159 11.0 13.0 0.00 0.00 0.00 43 1018.2
20260902034037 81 164 8.0 14.0 0.00 0.00 0.00 43 1018.1